Weather History for KSMP - June, 2014

Change the Weather History Date:

Tuesday, June 3, 2014

  Actual Average Record
Temperature  
Mean Temperature 49 °F -  
Max Temperature 55 °F 52 °F - (-1)
Min Temperature 43 °F 37 °F - (-1)
Degree Days  
Heating Degree Days 16    
Moisture  
Dew Point 44 °F    
Average Humidity 90    
Maximum Humidity 96    
Minimum Humidity 67    
Precipitation  
Precipitation 0.00 in - - ()
Sea Level Pressure  
Sea Level Pressure 29.98 in    
Wind  
Wind Speed 6 mph (WSW)    
Max Wind Speed 9 mph    
Max Gust Speed -    
Visibility 2 miles    
Events Fog    
Averages and records for this station are not official NWS values.
T = Trace of Precipitation, MM = Missing Value Source: NWS Daily Summary

Daily Weather History Graph

Daily Weather History Graph

Search for Another Location

Airport or City:

Trip Planner

Search our weather history database for the weather conditions in past years. The results will help you decide how hot, cold, wet, or windy it might be!

Date:

Astronomy

Jun. 03, 2014 Rise Set
Actual Time 5:11 AM PDT 8:55 PM PDT
Civil Twilight 4:32 AM PDT 9:34 PM PDT
Nautical Twilight 3:39 AM PDT 10:28 PM PDT
Astronomical Twilight 2:25 AM PDT 11:43 PM PDT
Moon 10:55 AM PDT 12:12 AM PDT
Length of Visible Light 17h 02m
Length of Day
15h 43m
Waxing Crescent, 31% of the Moon is Illuminated
Jun 3
Waxing Crescent
Jun 5
First Quarter
Jun 12
Full
Jun 19
Last Quarter
Jun 27
New

Hourly Weather History & Observations

Time (PDT) Temp. Windchill Dew Point Humidity Pressure Visibility Wind Dir Wind Speed Gust Speed Precip Events Conditions
12:09 AM 48.2 °F - 44.6 °F 87% 29.94 in 3.0 mi Variable 4.6 mph - N/A   Scattered Clouds
12:13 AM 48.2 °F - 44.6 °F 87% 29.93 in 2.5 mi Variable 5.8 mph - N/A   Mostly Cloudy
12:24 AM 48.2 °F - 44.6 °F 87% 29.93 in 1.5 mi Variable 5.8 mph - N/A   Mostly Cloudy
12:56 AM 46.9 °F - 45.0 °F 93% 29.88 in 2.0 mi Variable 6.9 mph - N/A   Overcast
1:09 AM 46.4 °F 43.5 °F 44.6 °F 93% 29.93 in 1.5 mi Variable 5.8 mph - N/A   Overcast
1:16 AM 46.4 °F 43.5 °F 44.6 °F 93% 29.93 in 0.8 mi Variable 5.8 mph - N/A   Overcast
1:56 AM 46.0 °F 42.5 °F 44.1 °F 93% 29.87 in 0.2 mi Variable 6.9 mph - N/A Fog Fog
2:56 AM 45.0 °F 41.2 °F 43.0 °F 93% 29.88 in 0.2 mi Variable 6.9 mph - N/A Fog Fog
3:09 AM 44.6 °F 40.7 °F 42.8 °F 93% 29.93 in 0.2 mi Variable 6.9 mph - N/A Fog Fog
4:56 AM 44.1 °F 40.8 °F 42.1 °F 93% 29.90 in 0.2 mi Variable 5.8 mph - N/A Fog Fog
6:56 AM 43.0 °F 39.5 °F 41.0 °F 93% 29.94 in 0.2 mi Variable 5.8 mph - N/A Fog Fog
8:56 AM 44.1 °F 41.5 °F 43.0 °F 96% 29.98 in 0.2 mi SW 4.6 mph - N/A Fog Fog
9:56 AM 44.1 °F 39.0 °F 42.1 °F 93% 29.99 in 0.2 mi WSW 9.2 mph - N/A Fog Fog
10:56 AM 46.0 °F 42.5 °F 44.1 °F 93% 30.00 in 0.2 mi Variable 6.9 mph - N/A Fog Fog
11:14 AM 46.4 °F 43.5 °F 44.6 °F 93% 30.01 in 0.5 mi Variable 5.8 mph - N/A Fog Fog
11:26 AM 48.2 °F - 46.4 °F 93% 30.01 in 9.0 mi WSW 8.1 mph - N/A   Mostly Cloudy
11:56 AM 51.1 °F - 46.0 °F 83% 30.05 in 10.0 mi Variable 4.6 mph - N/A   Clear
3:56 PM 55.9 °F - 46.0 °F 69% 30.02 in 10.0 mi West 9.2 mph - N/A   Scattered Clouds
4:14 PM 55.4 °F - 44.6 °F 67% 30.03 in 10.0 mi Variable 6.9 mph - N/A   Mostly Cloudy
8:11 PM 44.6 °F 40.2 °F 42.8 °F 93% 30.07 in 1.2 mi West 8.1 mph - N/A   Overcast
8:38 PM 44.6 °F 40.2 °F 42.8 °F 93% 30.08 in 0.2 mi West 8.1 mph - N/A Fog Fog
8:56 PM 45.0 °F 40.6 °F 42.1 °F 90% 30.09 in 0.2 mi West 8.1 mph - N/A Fog Fog
9:05 PM 44.6 °F 40.7 °F 42.8 °F 93% 30.08 in 0.2 mi Variable 6.9 mph - N/A Fog Fog